Cape Girardeau, MO

9:26 PM CDT on April 28, 2017 (GMT -0500)
Cape Girardeau Regional

Weather History for KCGI - August, 2014

Change the Weather History Date:

Monday, August 25, 2014

  Actual Average Record
Temperature  
Mean Temperature 84 °F 76 °F  
Max Temperature 94 °F 88 °F 101 °F (1978)
Min Temperature 73 °F 64 °F 52 °F (2015)
Degree Days  
Heating Degree Days 0 0  
Month to date heating degree days 0 0  
Since 1 June heating degree days 0 4  
Since 1 July heating degree days 0 0  
Cooling Degree Days 19 11  
Month to date cooling degree days 305 312  
Year to date cooling degree days 1150 1198  
Since 1 June cooling degree days 939 1046  
Growing Degree Days 33 (Base 50)    
Moisture  
Dew Point 74 °F    
Average Humidity 76    
Maximum Humidity 100    
Minimum Humidity 52    
Precipitation  
Precipitation 0.00 in 0.10 in 0.91 in (1964)
Month to date precipitation 2.86 2.41  
Year to date precipitation 31.67 30.44  
Sea Level Pressure  
Sea Level Pressure 29.99 in    
Wind  
Wind Speed 3 mph (ESE)    
Max Wind Speed 9 mph    
Max Gust Speed 12 mph    
Visibility 9 miles    
Events      
T = Trace of Precipitation, MM = Missing Value Source: NWS Daily Summary

Daily Weather History Graph

Daily Weather History Graph

Search for Another Location

Airport or City:

Trip Planner

Search our weather history database for the weather conditions in past years. The results will help you decide how hot, cold, wet, or windy it might be!

Date:

Astronomy

Aug. 25, 2014 Rise Set
Actual Time 6:23 AM CDT 7:36 PM CDT
Civil Twilight 5:56 AM CDT 8:03 PM CDT
Nautical Twilight 5:23 AM CDT 8:36 PM CDT
Astronomical Twilight 4:50 AM CDT 9:09 PM CDT
Moon 6:27 AM CDT (8/25) 7:28 PM CDT (8/25)
Length of Visible Light 14h 07m
Length of Day
13h 13m
New Moon, 0% of the Moon is Illuminated
Aug 25
New Moon
Sep 2
First Quarter
Sep 8
Full
Sep 15
Last Quarter
Sep 24
New

Hourly Weather History & Observations

Time (CDT) Temp. Heat Index Dew Point Humidity Pressure Visibility Wind Dir Wind Speed Gust Speed Precip Events Conditions
12:53 AM 75.9 °F - 73.9 °F 94% 29.97 in 9.0 mi SW 3.5 mph - N/A   Clear
1:53 AM 75.0 °F - 73.0 °F 94% 29.96 in 10.0 mi Calm Calm - N/A   Clear
2:53 AM 73.9 °F - 72.0 °F 93% 29.97 in 7.0 mi Calm Calm - N/A   Clear
3:53 AM 73.9 °F - 73.0 °F 97% 29.97 in 5.0 mi Calm Calm - N/A   Clear
4:53 AM 73.9 °F - 73.0 °F 97% 29.97 in 7.0 mi ESE 3.5 mph - N/A   Clear
5:53 AM 75.9 °F - 73.0 °F 91% 29.98 in 8.0 mi Calm Calm - N/A   Clear
6:53 AM 75.2 °F - 73.4 °F 94% 30.01 in 6.0 mi ESE 3.5 mph - N/A   Clear
7:53 AM 78.1 °F - 73.9 °F 87% 30.01 in 7.0 mi Calm Calm - N/A   Clear
8:53 AM 80.6 °F 86.2 °F 75.2 °F 84% 30.03 in 10.0 mi Calm Calm - N/A   Clear
9:53 AM 84.9 °F 93.3 °F 75.0 °F 72% 30.03 in 10.0 mi Calm Calm - N/A   Clear
10:53 AM 87.1 °F 96.3 °F 75.0 °F 67% 30.03 in 10.0 mi Calm Calm - N/A   Clear
11:53 AM 90.0 °F 100.2 °F 75.0 °F 61% 30.02 in 10.0 mi SW 3.5 mph - N/A   Clear
12:53 PM 91.9 °F 101.3 °F 73.9 °F 55% 30.01 in 10.0 mi NE 5.8 mph - N/A   Clear
1:53 PM 93.0 °F 104.6 °F 75.0 °F 56% 29.99 in 10.0 mi NE 5.8 mph - N/A   Clear
2:53 PM 93.9 °F 104.0 °F 73.9 °F 52% 29.97 in 10.0 mi Variable 5.8 mph - N/A   Clear
3:53 PM 93.0 °F 106.7 °F 77.0 °F 59% 29.97 in 10.0 mi ENE 6.9 mph - N/A   Clear
4:53 PM 91.0 °F 104.2 °F 77.0 °F 63% 29.97 in 10.0 mi SE 6.9 mph - N/A   Clear
5:53 PM 89.1 °F 100.2 °F 75.9 °F 65% 29.96 in 10.0 mi ESE 6.9 mph - N/A   Clear
6:53 PM 86.0 °F 96.0 °F 75.9 °F 72% 29.97 in 10.0 mi Calm Calm - N/A   Clear
7:53 PM 81.0 °F 87.9 °F 77.0 °F 88% 29.97 in 10.0 mi ESE 4.6 mph - N/A   Clear
8:53 PM 78.8 °F - 75.2 °F 89% 30.00 in 10.0 mi Calm Calm - N/A   Clear
9:53 PM 75.2 °F - 73.4 °F 94% 30.01 in 8.0 mi SE 3.5 mph - N/A   Clear
10:53 PM 78.1 °F - 75.0 °F 90% 30.02 in 10.0 mi Calm Calm - N/A   Clear
11:53 PM 75.0 °F - 73.0 °F 94% 30.04 in 6.0 mi SSE 3.5 mph - N/A   Clear